When you browse on this site, cookies collect data to enhance your experience and personalize the content and advertising you see.
Visit our Privacy Policy to learn more. By continuing to use the site, you agree to this use of cookies and data.
  • In Hungary
  • List of Countries
  • For 7 days
  • Water Temperature
  • Weather Map
  • News
  • Weather Widgets
  • user-avatar
    Login

    Hourly Weather Kimyatli

    Today, 18 October, Friday

    Time Temperature Precipitation Wind Pressure Humidity
    00:00 +7°C° 0 mm 1 mps 611 mmHg 62%
    01:00 +7°C° 0 mm 1 mps 611 mmHg 62%
    02:00 +7°C° 0 mm 1 mps 611 mmHg 63%
    03:00 +7°C° 0 mm 1 mps 611 mmHg 64%
    04:00 +7°C° 0 mm 1 mps 611 mmHg 63%
    05:00 +7°C° 0 mm 1 mps 611 mmHg 62%
    06:00 +7°C° 0 mm 1 mps 611 mmHg 61%
    07:00 +10°C° 0 mm 1 mps 611 mmHg 53%
    08:00 +12°C° 0 mm 1 mps 612 mmHg 46%
    09:00 +15°C° 0 mm 1 mps 614 mmHg 37%
    10:00 +16°C° 0 mm 1 mps 614 mmHg 34%
    11:00 +18°C° 0 mm 1 mps 614 mmHg 32%
    12:00 +19°C° 0 mm 1 mps 614 mmHg 29%
    13:00 +19°C° 0 mm 1 mps 614 mmHg 31%
    14:00 +18°C° 0 mm 1 mps 613 mmHg 33%
    15:00 +17°C° 0 mm 2 mps 613 mmHg 33%
    16:00 +15°C° 0 mm 1 mps 612 mmHg 41%
    17:00 +13°C° 0 mm 1 mps 611 mmHg 49%
    18:00 +11°C° 0 mm 1 mps 611 mmHg 56%
    19:00 +10°C° 0 mm 1 mps 611 mmHg 55%
    20:00 +10°C° 0 mm 1 mps 611 mmHg 54%
    21:00 +10°C° 0 mm 1 mps 610 mmHg 53%
    22:00 +9°C° 0 mm 1 mps 610 mmHg 53%
    23:00 +9°C° 0 mm 1 mps 610 mmHg 53%

    Tomorrow, 19 October, Saturday

    Time Temperature Precipitation Wind Pressure Humidity
    00:00 +9°C° 0 mm 1 mps 610 mmHg 52%
    01:00 +8°C° 0 mm 1 mps 610 mmHg 53%
    02:00 +8°C° 0 mm 1 mps 610 mmHg 53%
    03:00 +8°C° 0 mm 1 mps 610 mmHg 54%
    04:00 +8°C° 0 mm 1 mps 610 mmHg 55%
    05:00 +8°C° 0 mm 1 mps 610 mmHg 56%
    06:00 +8°C° 0 mm 1 mps 610 mmHg 57%
    07:00 +10°C° 0 mm 1 mps 611 mmHg 52%
    08:00 +11°C° 0 mm 0 mps 612 mmHg 47%
    09:00 +13°C° 0 mm 0 mps 613 mmHg 42%
    10:00 +15°C° 0 mm 1 mps 613 mmHg 41%
    11:00 +16°C° 0 mm 1 mps 614 mmHg 40%
    12:00 +17°C° 0 mm 2 mps 614 mmHg 39%
    13:00 +18°C° 0.2 mm 1 mps 614 mmHg 42%
    14:00 +16°C° 0.2 mm 1 mps 613 mmHg 45%
    15:00 +16°C° 0.2 mm 1 mps 613 mmHg 48%
    16:00 +14°C° 0.1 mm 1 mps 612 mmHg 55%
    17:00 +12°C° 0.1 mm 1 mps 612 mmHg 62%
    18:00 +10°C° 0.1 mm 1 mps 611 mmHg 69%
    19:00 +10°C° 0 mm 1 mps 611 mmHg 71%
    20:00 +10°C° 0 mm 1 mps 612 mmHg 72%
    21:00 +9°C° 0 mm 1 mps 612 mmHg 73%
    22:00 +8°C° 0 mm 0 mps 612 mmHg 75%
    23:00 +7°C° 0 mm 0 mps 611 mmHg 76%

    Day after tomorrow, 20 October, Sunday

    Time Temperature Precipitation Wind Pressure Humidity
    00:00 +7°C° 0 mm 0 mps 611 mmHg 77%
    01:00 +7°C° 0 mm 0 mps 611 mmHg 78%
    02:00 +7°C° 0 mm 1 mps 611 mmHg 80%
    03:00 +7°C° 0 mm 1 mps 611 mmHg 81%
    04:00 +7°C° 0 mm 1 mps 611 mmHg 81%
    05:00 +7°C° 0 mm 1 mps 611 mmHg 81%
    06:00 +7°C° 0 mm 1 mps 611 mmHg 80%
    07:00 +9°C° 0 mm 1 mps 612 mmHg 74%
    08:00 +11°C° 0 mm 1 mps 613 mmHg 67%
    09:00 +12°C° 0 mm 0 mps 614 mmHg 60%
    10:00 +14°C° 0.1 mm 1 mps 615 mmHg 58%
    11:00 +15°C° 0.1 mm 1 mps 615 mmHg 56%
    12:00 +15°C° 0.1 mm 2 mps 615 mmHg 53%
    13:00 +15°C° 0.5 mm 1 mps 615 mmHg 56%
    14:00 +15°C° 0.5 mm 1 mps 614 mmHg 59%
    15:00 +14°C° 0.5 mm 1 mps 614 mmHg 62%
    16:00 +13°C° 0.4 mm 1 mps 613 mmHg 70%
    17:00 +11°C° 0.4 mm 1 mps 613 mmHg 77%
    18:00 +9°C° 0.4 mm 1 mps 612 mmHg 85%
    19:00 +8°C° 0 mm 0 mps 612 mmHg 85%
    20:00 +7°C° 0 mm 0 mps 612 mmHg 86%
    21:00 +7°C° 0 mm 0 mps 612 mmHg 87%
    22:00 +7°C° 0 mm 0 mps 612 mmHg 88%
    23:00 +7°C° 0 mm 0 mps 613 mmHg 89%

    21 October, Monday

    Time Temperature Precipitation Wind Pressure Humidity
    00:00 +7°C° 0 mm 0 mps 613 mmHg 90%
    01:00 +7°C° 0 mm 0 mps 613 mmHg 91%
    02:00 +7°C° 0 mm 0 mps 613 mmHg 92%
    03:00 +7°C° 0 mm 0 mps 613 mmHg 92%
    04:00 +7°C° 0 mm 0 mps 612 mmHg 92%
    05:00 +6°C° 0 mm 0 mps 612 mmHg 92%
    06:00 +6°C° 0 mm 0 mps 612 mmHg 92%
    07:00 +7°C° 0 mm 0 mps 613 mmHg 87%
    08:00 +10°C° 0 mm 1 mps 613 mmHg 81%
    09:00 +11°C° 0 mm 1 mps 614 mmHg 75%
    10:00 +12°C° 0 mm 1 mps 614 mmHg 73%
    11:00 +13°C° 0 mm 1 mps 614 mmHg 70%
    12:00 +13°C° 0 mm 1 mps 615 mmHg 67%
    13:00 +13°C° 0 mm 1 mps 614 mmHg 69%
    14:00 +13°C° 0 mm 1 mps 614 mmHg 71%
    15:00 +13°C° 0 mm 1 mps 614 mmHg 72%
    16:00 +12°C° 0 mm 1 mps 613 mmHg 77%
    17:00 +11°C° 0 mm 1 mps 613 mmHg 82%
    18:00 +10°C° 0 mm 1 mps 613 mmHg 86%
    19:00 +9°C° 0 mm 1 mps 613 mmHg 87%
    20:00 +9°C° 0 mm 1 mps 613 mmHg 87%
    21:00 +8°C° 0 mm 1 mps 612 mmHg 88%
    22:00 +8°C° 0 mm 1 mps 612 mmHg 88%
    23:00 +8°C° 0 mm 1 mps 612 mmHg 89%

    22 October, Tuesday

    Time Temperature Precipitation Wind Pressure Humidity
    00:00 +7°C° 0 mm 1 mps 612 mmHg 89%
    01:00 +7°C° 0 mm 1 mps 612 mmHg 89%
    02:00 +7°C° 0 mm 1 mps 611 mmHg 89%
    03:00 +6°C° 0 mm 1 mps 611 mmHg 89%
    04:00 +6°C° 0 mm 1 mps 611 mmHg 88%
    05:00 +5°C° 0 mm 1 mps 611 mmHg 87%
    06:00 +5°C° 0 mm 1 mps 610 mmHg 86%
    07:00 +7°C° 0 mm 1 mps 611 mmHg 77%
    08:00 +9°C° 0 mm 1 mps 613 mmHg 69%
    09:00 +11°C° 0 mm 1 mps 614 mmHg 60%
    10:00 +12°C° 0 mm 1 mps 614 mmHg 57%
    11:00 +13°C° 0 mm 1 mps 614 mmHg 55%
    12:00 +14°C° 0 mm 2 mps 614 mmHg 52%
    13:00 +14°C° 0 mm 2 mps 614 mmHg 54%
    14:00 +14°C° 0 mm 2 mps 614 mmHg 57%
    15:00 +13°C° 0 mm 2 mps 614 mmHg 60%
    16:00 +12°C° 0 mm 1 mps 613 mmHg 69%
    17:00 +10°C° 0 mm 1 mps 612 mmHg 77%
    18:00 +8°C° 0 mm 1 mps 612 mmHg 86%
    19:00 +7°C° 0 mm 1 mps 612 mmHg 87%
    20:00 +7°C° 0 mm 1 mps 612 mmHg 87%
    21:00 +7°C° 0 mm 1 mps 612 mmHg 87%
    22:00 +6°C° 0 mm 1 mps 611 mmHg 87%
    23:00 +6°C° 0 mm 1 mps 611 mmHg 87%

    23 October, Wednesday

    Time Temperature Precipitation Wind Pressure Humidity
    00:00 +6°C° 0 mm 1 mps 611 mmHg 87%
    01:00 +5°C° 0 mm 1 mps 611 mmHg 87%
    02:00 +5°C° 0 mm 1 mps 611 mmHg 86%
    03:00 +5°C° 0 mm 1 mps 611 mmHg 86%
    04:00 +5°C° 0 mm 1 mps 611 mmHg 84%
    05:00 +5°C° 0 mm 1 mps 611 mmHg 82%
    06:00 +5°C° 0 mm 1 mps 611 mmHg 80%
    07:00 +7°C° 0 mm 1 mps 612 mmHg 69%
    08:00 +10°C° 0 mm 1 mps 613 mmHg 59%
    09:00 +11°C° 0 mm 0 mps 614 mmHg 48%
    10:00 +13°C° 0 mm 1 mps 614 mmHg 46%
    11:00 +14°C° 0 mm 1 mps 614 mmHg 43%
    12:00 +15°C° 0 mm 1 mps 615 mmHg 41%
    13:00 +15°C° 0 mm 1 mps 614 mmHg 44%
    14:00 +15°C° 0 mm 1 mps 614 mmHg 47%
    15:00 +14°C° 0 mm 1 mps 614 mmHg 50%
    16:00 +12°C° 0 mm 1 mps 613 mmHg 59%
    17:00 +10°C° 0 mm 1 mps 612 mmHg 69%
    18:00 +7°C° 0 mm 0 mps 612 mmHg 78%
    19:00 +7°C° 0 mm 0 mps 612 mmHg 78%
    20:00 +6°C° 0 mm 0 mps 612 mmHg 79%
    21:00 +6°C° 0 mm 0 mps 612 mmHg 79%
    22:00 +6°C° 0 mm 0 mps 611 mmHg 80%
    23:00 +5°C° 0 mm 0 mps 611 mmHg 80%
    Show more